This demonstration page uses our WeatherBlox Daily Observations layout. Learn more.

Left ArrowRight Arrow

38.20091, -84.87328

Hourly Observations for January 24, 2019

Temp ( °F °C ) Dew Point ( °F °C ) Humidity (%) Winds ( mph kmh ) Pressure ( in mb ) Visibility ( mi km ) Precip ( " mm )
12:00 am 00:00 Cloudy with Light Wintry Mix 34 1.1 32 0 92 92 WNW 9 15 29.77 1008 3 5 0.00 0.03
12:53 am 00:53 Cloudy with Light Freezing Rain 33 0.6 30 -1.1 89 89 WNW 10 17 29.74 1007 5 8 0.00 0.03
1:16 am 01:16 Cloudy with Light Snow 32 0 30 -1.1 92 92 WNW 9 15 29.77 1008 4 6 0.01 0.25
1:32 am 01:32 Cloudy with Light Snow 32 0 29 -1.7 88 88 WNW 12 19 29.77 1008 2 3 0.02 0.51
1:39 am 01:39 Cloudy with Light Snow 32 0 29 -1.7 88 88 NW 7 11 29.77 1008 2 2 0.02 0.51
1:47 am 01:47 Cloudy with Light Snow 30 -1 28 -2 93 93 WNW 10 17 29.77 1008 3 5 0.03 0.76
1:53 am 01:53 Cloudy with Light Snow 31 -0.6 29 -1.7 92 92 WNW 9 15 29.75 1008 3 5 0.03 0.76
2:53 am 02:53 Cloudy with Mist and Fog 30 -1.1 27 -2.8 88 88 WNW 7 11 29.77 1008 6 10 0.01 0.25
3:49 am 03:49 Cloudy 28 -2 25 -4 86 86 NW 10 17 29.85 1011 10 16 0.00 0.00
3:53 am 03:53 Cloudy 29 -1.7 25 -3.9 85 85 NW 14 22 29.80 1009 10 16 0.00 0.00
4:53 am 04:53 Cloudy 28 -2.2 25 -3.9 88 88 W 12 19 29.81 1010 9 14 0.00 0.00
5:53 am 05:53 Cloudy 28 -2.2 24 -4.4 85 85 W 8 13 29.83 1010 10 16 0.00 0.00
6:53 am 06:53 Cloudy 27 -2.8 23 -5 85 85 W 10 17 29.85 1011 10 16 0.00 0.00
7:39 am 07:39 Cloudy 27 -2.8 22 -5.6 81 81 W 9 15 29.91 1013 10 16 0.00 0.00
7:53 am 07:53 Cloudy 27 -2.8 22 -5.6 81 81 WNW 9 15 29.87 1012 10 16 0.00 0.00
8:12 am 08:12 Cloudy 27 -2.8 23 -5 85 85 W 5 7 29.91 1013 10 16 0.00 0.00
8:53 am 08:53 Cloudy 26 -3.3 21 -6.1 81 81 W 7 11 29.91 1013 10 16 0.00 0.00
9:53 am 09:53 Cloudy with Haze 26 -3.3 21 -6.1 81 81 W 9 15 29.96 1014 6 10 0.00 0.00
10:53 am 10:53 Cloudy 26 -3.3 21 -6.1 81 81 WSW 9 15 29.98 1015 9 14 0.00 0.00
11:53 am 11:53 Cloudy 26 -3.3 21 -6.1 81 81 W 7 11 29.96 1015 10 16 0.00 0.00
12:42 pm 12:42 Cloudy 26 -3.3 20 -6.7 78 78 W 8 13 30.00 1016 10 16 0.00 0.00
12:53 pm 12:53 Cloudy 26 -3.3 21 -6.1 81 81 WSW 8 13 29.96 1014 9 14 0.00 0.00
1:53 pm 13:53 Cloudy 27 -2.8 21 -6.1 78 78 WSW 10 17 29.96 1015 10 16 0.00 0.00
2:53 pm 14:53 Cloudy 29 -1.7 21 -6.1 72 72 SW 13 20 29.96 1015 10 16 0.00 0.00
3:53 pm 15:53 Cloudy 30 -1.1 22 -5.6 72 72 WSW 9 15 29.97 1015 10 16 0.00 0.00
4:53 pm 16:53 Cloudy 31 -0.6 22 -5.6 69 69 SW 9 15 29.99 1016 10 16 0.00 0.00
5:23 pm 17:23 Cloudy 31 -0.6 23 -5 72 72 WSW 6 9 30.03 1017 10 16 0.00 0.00
5:53 pm 17:53 Cloudy 31 -0.6 24 -4.4 76 76 SW 8 13 30.01 1016 10 16 0.00 0.00
6:53 pm 18:53 Cloudy 32 0 23 -5 69 69 WSW 7 11 30.03 1017 10 16 0.00 0.00
7:12 pm 19:12 Cloudy 32 0 23 -5 69 69 WSW 7 11 30.09 1019 10 16 0.00 0.00
7:53 pm 19:53 Cloudy 32 0 23 -5 69 69 WSW 8 13 30.05 1018 10 16 0.00 0.00
8:53 pm 20:53 Cloudy 31 -0.6 23 -5 72 72 W 8 13 30.06 1018 10 16 0.00 0.00
9:53 pm 21:53 Cloudy 31 -0.6 23 -5 72 72 W 13 20 30.08 1019 10 16 0.00 0.00
10:53 pm 22:53 Cloudy 29 -1.7 20 -6.7 69 69 W 12 19 30.10 1019 10 16 0.00 0.00
11:53 pm 23:53 Cloudy 29 -1.7 18 -7.8 63 63 W 9 15 30.11 1020 10 16 0.00 0.00

Powered by AerisWeather